Minden, LA

5:22 PM CST on December 14, 2017 (GMT -0600)
Minden

Weather History for KMNE - March, 2014

Change the Weather History Date:

Thursday, March 6, 2014

  Actual Average (KBAD) Record (KBAD)
Temperature  
Mean Temperature 46 °F -  
Max Temperature 56 °F 61 °F 81 °F (2009)
Min Temperature 35 °F 42 °F 23 °F (2015)
Degree Days  
Heating Degree Days 18    
Moisture  
Dew Point 37 °F    
Average Humidity 81    
Maximum Humidity 95    
Minimum Humidity 47    
Precipitation  
Precipitation 0.00 in - - ()
Sea Level Pressure  
Sea Level Pressure 30.11 in    
Wind  
Wind Speed 6 mph (North)    
Max Wind Speed 12 mph    
Max Gust Speed -    
Visibility 8 miles    
Events Rain    
Averages and records for this station are not official NWS values.
T = Trace of Precipitation, MM = Missing Value Source: NWS Daily Summary

Daily Weather History Graph

Daily Weather History Graph

Search for Another Location

Airport or City:

Trip Planner

Search our weather history database for the weather conditions in past years. The results will help you decide how hot, cold, wet, or windy it might be!

Date:

Astronomy

Mar. 06, 2014 Rise Set
Actual Time 6:34 AM CST 6:14 PM CST
Civil Twilight 6:10 AM CST 6:39 PM CST
Nautical Twilight 5:41 AM CST 7:07 PM CST
Astronomical Twilight 5:13 AM CST 7:36 PM CST
Moon 10:01 AM CST (3/6) No Moon Set
Length of Visible Light 12h 28m
Length of Day
11h 39m
Waxing Crescent, 32% of the Moon is Illuminated
Mar 6
Waxing Crescent
Mar 8
First Quarter
Mar 16
Full
Mar 23
Last Quarter
Mar 30
New

Hourly Weather History & Observations

Time (CST) Temp. Windchill Dew Point Humidity Pressure Visibility Wind Dir Wind Speed Gust Speed Precip Events Conditions
12:15 AM 41.0 °F 38.0 °F 38.7 °F 91% 30.13 in 7.0 mi North 4.6 mph - N/A   Light Drizzle
12:35 AM 41.0 °F 38.0 °F 38.7 °F 91% 30.13 in 7.0 mi NNW 4.6 mph - N/A Rain Light Rain
12:55 AM 40.5 °F 35.8 °F 38.3 °F 92% 30.14 in 5.0 mi NNW 6.9 mph - N/A   Overcast
1:15 AM 40.3 °F 36.3 °F 38.1 °F 92% 30.13 in 5.0 mi North 5.8 mph - N/A   Overcast
1:35 AM 40.1 °F 34.7 °F 37.9 °F 92% 30.12 in 5.0 mi North 8.1 mph - N/A   Overcast
1:55 AM 40.1 °F 36.9 °F 37.8 °F 91% 30.12 in 5.0 mi North 4.6 mph - N/A   Overcast
2:15 AM 40.1 °F 36.1 °F 37.8 °F 91% 30.12 in 5.0 mi North 5.8 mph - N/A   Overcast
2:35 AM 39.7 °F 35.6 °F 37.9 °F 93% 30.12 in 3.0 mi NNW 5.8 mph - N/A   Overcast
2:55 AM 39.7 °F 35.6 °F 37.9 °F 93% 30.11 in 2.5 mi North 5.8 mph - N/A   Overcast
3:15 AM 39.6 °F 33.5 °F 37.9 °F 94% 30.10 in 3.0 mi North 9.2 mph - N/A   Overcast
3:35 AM 39.4 °F 32.3 °F 37.8 °F 94% 30.10 in 3.0 mi North 11.5 mph - N/A   Overcast
3:55 AM 38.8 °F 32.6 °F 37.4 °F 95% 30.10 in 4.0 mi North 9.2 mph - N/A   Overcast
4:15 AM 38.7 °F 34.3 °F 37.2 °F 95% 30.10 in 3.0 mi North 5.8 mph - N/A   Overcast
4:35 AM 38.3 °F 31.9 °F 36.9 °F 95% 30.10 in 4.0 mi North 9.2 mph - N/A   Overcast
4:55 AM 38.3 °F 33.9 °F 36.7 °F 94% 30.10 in 7.0 mi North 5.8 mph - N/A   Overcast
5:15 AM 38.1 °F 32.3 °F 36.5 °F 94% 30.11 in 7.0 mi North 8.1 mph - N/A   Overcast
5:35 AM 37.9 °F 33.5 °F 36.5 °F 95% 30.11 in 7.0 mi North 5.8 mph - N/A   Overcast
5:55 AM 37.8 °F 31.8 °F 36.1 °F 94% 30.12 in 7.0 mi North 8.1 mph - N/A   Overcast
6:15 AM 37.6 °F 32.3 °F 36.0 °F 94% 30.12 in 7.0 mi North 6.9 mph - N/A   Overcast
6:35 AM 37.4 °F 33.8 °F 35.8 °F 94% 30.12 in 7.0 mi NNE 4.6 mph - N/A   Overcast
6:55 AM 37.4 °F 34.9 °F 35.8 °F 94% 30.12 in 10.0 mi North 3.5 mph - N/A   Overcast
7:15 AM 37.6 °F 33.1 °F 36.0 °F 94% 30.13 in 7.0 mi North 5.8 mph - N/A   Overcast
7:35 AM 37.6 °F 33.1 °F 36.0 °F 94% 30.14 in 5.0 mi North 5.8 mph - N/A   Drizzle
7:55 AM 37.8 °F 32.5 °F 36.1 °F 94% 30.14 in 7.0 mi North 6.9 mph - N/A   Drizzle
8:15 AM 37.9 °F 32.7 °F 36.1 °F 93% 30.14 in 10.0 mi North 6.9 mph - N/A Rain Light Rain
8:35 AM 37.8 °F 31.8 °F 36.0 °F 93% 30.15 in 10.0 mi North 8.1 mph - N/A Rain Rain
8:55 AM 38.1 °F 33.7 °F 36.1 °F 93% 30.16 in 10.0 mi North 5.8 mph - N/A   Overcast
9:15 AM 38.3 °F 33.9 °F 36.3 °F 93% 30.16 in 10.0 mi NNW 5.8 mph - N/A   Overcast
9:35 AM 38.3 °F 33.2 °F 36.5 °F 93% 30.17 in 7.0 mi NNW 6.9 mph - N/A   Overcast
9:55 AM 38.3 °F 33.2 °F 36.5 °F 93% 30.17 in 7.0 mi NNW 6.9 mph - N/A   Overcast
10:15 AM 38.3 °F 32.5 °F 36.5 °F 93% 30.18 in 7.0 mi NNW 8.1 mph - N/A   Overcast
10:35 AM 38.7 °F 33.6 °F 36.9 °F 93% 30.17 in 7.0 mi North 6.9 mph - N/A   Overcast
10:55 AM 39.2 °F 33.6 °F 36.9 °F 91% 30.17 in 5.0 mi NNW 8.1 mph - N/A   Overcast
11:15 AM 39.6 °F 34.0 °F 37.4 °F 92% 30.17 in 7.0 mi North 8.1 mph - N/A   Overcast
11:35 AM 40.5 °F 35.8 °F 37.6 °F 89% 30.17 in 10.0 mi North 6.9 mph - N/A   Overcast
11:55 AM 43.2 °F 39.0 °F 38.1 °F 82% 30.16 in 10.0 mi North 6.9 mph - N/A   Overcast
12:15 PM 44.8 °F 41.6 °F 38.5 °F 79% 30.15 in 10.0 mi North 5.8 mph - N/A   Overcast
12:35 PM 46.4 °F 42.9 °F 38.3 °F 73% 30.15 in 10.0 mi NNW 6.9 mph - N/A   Overcast
12:55 PM 48.6 °F - 37.4 °F 65% 30.12 in 10.0 mi NW 6.9 mph - N/A   Overcast
1:15 PM 50.4 °F - 36.9 °F 60% 30.12 in 10.0 mi NNW 9.2 mph - N/A   Scattered Clouds
1:35 PM 51.3 °F - 37.2 °F 59% 30.11 in 10.0 mi North 9.2 mph - N/A   Mostly Cloudy
1:55 PM 52.7 °F - 36.7 °F 55% 30.10 in 10.0 mi WNW 10.4 mph - N/A   Scattered Clouds
2:15 PM 53.8 °F - 36.1 °F 51% 30.09 in 10.0 mi NW 6.9 mph - N/A   Scattered Clouds
2:35 PM 54.1 °F - 36.1 °F 51% 30.09 in 10.0 mi NNW 4.6 mph - N/A   Scattered Clouds
2:50 PM 54.5 °F - 36.3 °F 50% 30.09 in 10.0 mi North 6.9 mph - N/A   Scattered Clouds
3:15 PM 55.2 °F - 36.1 °F 49% 30.08 in 10.0 mi North 8.1 mph - N/A   Clear
3:35 PM 55.9 °F - 36.3 °F 48% 30.08 in 10.0 mi NE 6.9 mph - N/A   Scattered Clouds
3:55 PM 56.1 °F - 36.5 °F 48% 30.08 in 10.0 mi NW 6.9 mph - N/A   Scattered Clouds
4:15 PM 56.3 °F - 36.3 °F 47% 30.07 in 10.0 mi North 5.8 mph - N/A   Scattered Clouds
4:35 PM 55.8 °F - 36.0 °F 47% 30.08 in 10.0 mi NNW 6.9 mph - N/A   Clear
4:55 PM 55.9 °F - 36.3 °F 48% 30.08 in 10.0 mi NNW 4.6 mph - N/A   Clear
5:15 PM 55.4 °F - 36.1 °F 48% 30.07 in 10.0 mi NNE 3.5 mph - N/A   Clear
5:35 PM 54.9 °F - 36.0 °F 49% 30.07 in 10.0 mi North 3.5 mph - N/A   Clear
5:55 PM 53.6 °F - 36.5 °F 52% 30.07 in 10.0 mi Calm Calm - N/A   Clear
6:15 PM 50.9 °F - 37.9 °F 61% 30.07 in 10.0 mi Calm Calm - N/A   Clear
6:35 PM 49.3 °F - 37.4 °F 64% 30.07 in 10.0 mi Calm Calm - N/A   Clear
6:55 PM 47.1 °F - 38.8 °F 73% 30.07 in 10.0 mi Calm Calm - N/A   Clear
7:15 PM 45.5 °F - 39.6 °F 80% 30.07 in 10.0 mi Calm Calm - N/A   Clear
7:35 PM 43.9 °F - 39.4 °F 84% 30.07 in 10.0 mi Calm Calm - N/A   Clear
7:55 PM 43.9 °F - 39.4 °F 84% 30.08 in 10.0 mi Calm Calm - N/A   Clear
8:15 PM 44.2 °F 42.7 °F 38.8 °F 81% 30.08 in 10.0 mi East 3.5 mph - N/A   Clear
8:35 PM 43.7 °F 41.1 °F 38.7 °F 82% 30.09 in 10.0 mi East 4.6 mph - N/A   Clear
8:55 PM 43.7 °F 40.3 °F 38.8 °F 83% 30.08 in 10.0 mi East 5.8 mph - N/A   Clear
9:15 PM 42.3 °F 37.9 °F 38.5 °F 86% 30.09 in 10.0 mi East 6.9 mph - N/A   Clear
9:35 PM 41.4 °F 38.4 °F 38.1 °F 88% 30.09 in 10.0 mi East 4.6 mph - N/A   Clear
9:55 PM 40.6 °F - 37.8 °F 89% 30.10 in 7.0 mi Calm Calm - N/A   Clear
10:15 PM 39.7 °F - 37.4 °F 91% 30.10 in 7.0 mi Calm Calm - N/A   Clear
10:35 PM 39.2 °F - 36.7 °F 91% 30.10 in 7.0 mi Calm Calm - N/A   Clear
10:55 PM 38.3 °F - 36.5 °F 93% 30.09 in 4.0 mi Calm Calm - N/A   Clear
11:15 PM 37.4 °F - 35.6 °F 93% 30.11 in 5.0 mi Calm Calm - N/A   Clear
11:35 PM 37.4 °F - 35.8 °F 94% 30.10 in 4.0 mi Calm Calm - N/A   Clear
11:55 PM 35.4 °F - 33.8 °F 94% 30.11 in 3.0 mi Calm Calm - N/A   Clear